Weather in Plesetsk

Russia / Arkhangel'skaya Oblast'     62°42′33″N   40°17′06″E
temp.,
°C
wind,
m/s
gust,
m/s
humid.,
%
clouds,
%
prec.,
mm/h
press.,
hPa
HPBL,
m
7 may, fri
fri700:00+6ese61794100 3.5 994777
03:00+8ssw71284100 5.1 9951023
06:00+6ssw5108881 0.1 998981
09:00+6ssw51079100 0.3 10001168
12:00+7ssw4885100 0.2 10021164
15:00+8ssw587535 0.6 1003999
18:00+9sw357154 0.5 10041061
21:00+5sw239284 0.9 100649
8 may, sat
sat800:00+4ssw279242 0.0 1008272
03:00+4s2793100 0.0 1009226
06:00+5s278956 0.0 1009273
09:00+9sse4766100 0.0 1009755
12:00+13sse51051100 0.0 10071761
15:00+13sse61452100 0.6 10062241
18:00+8sse71681100 0.9 10081439
21:00+7sse51290100 2.7 10071246
9 may, sun
sun900:00+7sse4992100 1.4 10061141
03:00+6s3794100 2.3 1006504
06:00+5w3593100 0.9 1007370
09:00+5nw3593100 0.9 1009583
12:00+5nw4689100 0.1 1011757
15:00+7nw3572100 0.1 10131143
18:00+8nnw2659100 0.1 10141380
21:00+3nw01665 0.1 101710
10 may, mon
mon1000:00+2ssw22745 0.0 101840
03:00+1sw22922 0.0 102045
06:00+4ssw37819 0.0 1022215
09:00+10sw484978 0.0 1022985
12:00+13sw594297 0.0 10222214
15:00+12sw4952100 0.0 10221704
18:00+10sw4869100 0.1 10231204
21:00+8sw4984100 0.1 1024721
11 may, tue
tue1100:00+8ssw3990100 0.0 1024414
03:00+8ssw41194100 0.0 1023353
06:00+10sw51589100 0.0 1023589
09:00+15sw51371100 0.0 1023870
12:00+19wsw6105384 0.0 10231389
15:00+21wsw61048100 0.0 10231662
18:00+18wsw5125693 0.0 10241270
21:00+15sw41366100 0.0 1024524